Theta_e
359 357 360 358 357 363 358 357 361 358 361 358 356 358 352 351 351 353 356 364 362 362 360 360 360 360 360 361 359 358 358 358 356 355 354 356 356 355 353 352 354 354 353
360 356 356 352 356 358 358 356 358 363 356 357 355 358 357 355 352 352 351 359 362 360 362 362 363 361 360 359 360 360 359 358 359 359 358 357 357 357 354 354 352 352 355
365 364 354 353 356 360 361 360 363 359 356 357 355 357 354 355 354 356 353 354 357 361 361 362 362 362 363 361 361 360 360 360 360 359 358 357 356 357 356 354 354 353 350
361 361 354 352 355 358 356 355 357 362 355 353 354 353 354 358 356 356 357 359 358 354 358 362 362 361 362 363 363 363 362 360 359 359 358 358 355 355 355 356 353 347 344
356 358 352 351 356 355 355 357 356 357 354 352 353 353 354 352 355 351 354 357 361 358 358 359 360 359 361 361 363 363 363 361 359 359 358 358 357 354 353 350 351 345 343
355 351 351 352 352 350 351 357 356 355 351 350 347 347 356 353 352 352 353 353 358 359 353 353 357 358 360 361 361 360 361 362 359 357 357 357 357 355 353 348 348 349 346
354 353 353 360 355 351 355 357 358 355 348 351 352 345 347 350 349 351 355 356 358 358 358 357 371 357 359 360 358 357 358 359 359 358 357 355 353 354 353 352 351 350 349
357 357 354 350 353 351 353 351 349 348 348 353 348 351 336 342 347 352 361 356 356 360 355 358 361 361 362 367 360 356 358 358 358 358 356 354 353 352 352 351 350 349 348
356 356 351 350 351 349 345 349 353 354 352 359 356 347 336 335 337 354 353 351 351 351 356 356 356 359 361 362 361 359 352 352 356 357 355 353 351 350 351 347 345 345 347
352 354 355 353 348 348 351 346 356 358 357 351 354 350 348 345 333 331 346 349 351 350 354 354 352 355 358 362 354 350 347 349 353 354 352 351 350 349 347 346 346 346 347
352 349 346 350 348 353 358 357 357 357 358 354 353 345 345 342 341 338 333 343 344 343 344 347 354 356 356 358 357 350 350 351 352 353 351 350 348 348 347 347 347 347 346
353 351 346 348 348 349 353 351 355 354 354 353 348 343 342 347 345 343 342 343 339 334 336 340 344 352 354 355 350 348 348 347 347 348 348 349 348 348 347 347 347 347 347
350 352 353 352 349 351 348 349 353 352 351 352 352 350 349 349 353 351 349 345 337 334 333 333 336 345 347 350 347 346 344 341 339 339 340 341 343 344 345 345 344 347 347
348 355 354 354 354 353 350 349 354 354 355 355 353 354 354 358 358 356 351 346 332 331 331 329 334 337 339 341 341 341 339 337 336 335 335 336 339 340 341 342 343 344 344
349 350 351 351 353 354 353 352 348 345 347 349 348 350 349 352 350 359 352 349 342 328 326 328 329 336 336 338 340 340 337 334 333 332 332 332 335 335 336 336 336 336 336
351 349 348 348 351 351 352 353 355 350 349 349 349 351 351 350 354 359 356 352 347 344 329 331 330 333 335 335 339 339 334 333 331 331 331 331 333 333 333 333 332 332 332
350 349 348 352 351 349 350 349 349 348 346 347 349 348 349 351 350 355 357 347 350 350 336 328 330 332 332 333 336 338 335 335 331 328 329 330 330 330 330 330 330 330 330
350 349 348 346 349 348 346 346 344 343 343 342 343 345 346 347 349 353 354 349 350 352 336 326 326 325 327 333 335 335 335 334 332 327 326 327 327 326 326 325 325 324 324
349 348 347 347 349 349 343 344 344 343 343 343 343 344 344 345 346 349 350 350 349 348 337 328 323 324 323 329 330 334 335 335 331 326 324 324 323 323 322 320 319 317 317
349 349 348 348 346 345 344 343 340 340 343 343 343 343 343 343 345 346 347 348 347 340 337 326 322 321 321 324 327 326 326 328 324 325 326 326 324 322 320 318 317 316 314
349 350 348 348 347 344 340 343 340 340 342 342 342 343 344 336 333 336 342 346 342 337 331 328 322 321 319 319 321 328 327 327 328 328 325 322 323 323 322 319 318 316 314
351 351 346 346 345 345 324 329 331 340 340 341 341 341 342 334 331 329 332 330 340 338 332 328 325 321 322 322 327 324 325 323 319 328 326 322 324 320 319 320 320 315 313
353 352 350 347 345 344 321 321 326 331 339 339 340 340 338 335 336 338 328 328 329 329 334 336 330 326 324 327 329 322 324 327 325 322 322 322 326 324 324 322 317 315 313
350 350 349 347 346 342 320 317 321 328 338 338 337 338 340 339 338 337 339 337 336 337 336 334 334 333 334 332 331 331 326 329 329 330 329 323 326 325 326 322 317 315 313
349 349 349 346 345 343 317 315 318 328 334 339 337 337 336 337 324 324 337 337 336 335 322 321 323 324 327 325 330 326 324 323 321 325 330 327 323 324 325 321 317 315 312
348 346 346 344 334 341 314 313 316 327 332 337 340 339 321 323 318 318 335 336 333 335 333 332 333 328 329 329 324 336 331 324 325 328 333 327 329 327 319 325 319 313 313
Wind_Speed
6 5 4 6 4 4 8 7 1 4 4 5 7 6 8 8 7 3 5 16 15 14 14 14 14 14 14 13 13 13 13 14 12 12 11 10 9 10 9 9 9 9 9
8 7 7 6 7 6 2 5 7 4 7 8 10 6 6 6 9 8 5 10 17 16 15 14 14 15 15 15 14 14 15 14 13 13 12 11 10 9 10 10 10 10 10
8 9 7 7 4 6 6 6 3 3 6 6 5 2 6 9 5 5 8 7 8 15 17 16 15 15 15 15 16 15 15 15 14 12 14 13 11 9 10 11 10 8 7
8 7 5 5 6 5 5 5 3 5 7 5 3 4 3 4 6 8 5 3 4 4 11 15 16 16 17 16 17 17 15 16 15 14 13 13 13 10 9 9 9 5 10
7 8 5 5 5 6 7 7 6 8 7 5 3 5 5 6 8 8 10 10 7 2 2 10 18 16 16 18 17 17 16 16 15 15 15 14 13 13 11 10 13 12 13
11 8 6 7 5 8 7 7 6 7 6 4 5 3 1 3 3 6 7 7 4 3 3 4 10 11 17 19 19 17 16 17 15 14 14 14 14 15 16 16 16 15 13
13 11 6 6 7 7 8 4 4 7 7 5 4 7 6 8 11 10 5 6 2 6 7 9 3 5 7 17 15 14 15 16 13 13 12 13 14 14 16 16 16 14 12
8 8 7 2 4 4 6 6 5 8 10 6 4 3 7 3 6 6 4 6 4 4 7 12 3 8 8 5 5 14 20 14 12 13 13 10 10 10 12 13 11 8 7
4 8 9 6 5 4 4 4 6 11 8 5 7 5 2 3 1 2 5 2 2 5 4 6 4 5 6 6 2 6 1 2 6 8 9 7 6 5 5 3 4 2 8
4 5 6 8 5 5 8 7 8 9 9 7 4 6 6 1 1 3 2 2 1 2 4 5 4 4 5 4 6 6 2 1 4 6 8 8 7 7 5 6 5 6 5
4 6 4 5 4 5 7 9 9 8 7 6 6 3 2 4 5 3 5 3 2 3 6 5 4 4 5 3 5 8 8 9 10 11 11 10 9 9 8 8 7 7 9
7 8 5 4 2 4 5 4 4 6 5 5 2 3 4 5 7 7 6 5 2 2 4 5 6 4 5 6 11 13 14 15 12 11 11 11 11 11 9 8 7 8 10
7 8 9 8 6 5 5 5 4 6 6 7 8 8 10 12 4 5 5 4 2 2 2 3 4 4 5 5 8 12 15 15 15 15 15 15 13 11 10 6 6 9 11
5 8 9 8 7 6 3 2 3 4 6 6 8 7 6 6 5 6 6 5 3 3 2 2 2 3 3 3 9 12 9 13 13 12 12 12 13 13 13 13 14 15 15
3 3 4 4 5 7 7 6 4 2 4 4 5 5 5 6 7 7 6 5 4 5 2 3 1 2 3 3 6 7 9 11 12 12 11 10 11 12 13 13 14 14 14
3 1 4 4 4 6 6 6 6 7 4 5 5 5 5 5 5 2 5 6 6 4 6 3 2 2 3 3 5 7 10 11 11 11 11 10 11 13 13 14 14 14 15
3 4 2 3 1 2 4 3 4 3 5 4 4 5 6 5 6 3 5 4 5 4 6 3 2 3 3 6 5 6 8 8 8 9 11 10 11 12 12 13 13 13 13
4 4 3 2 3 6 2 4 6 3 4 3 3 4 6 4 2 4 4 6 5 4 7 7 3 1 2 4 4 5 5 5 9 8 9 10 10 11 11 11 12 11 11
5 6 4 4 3 3 3 4 5 5 4 4 3 3 4 4 4 2 3 4 4 4 8 6 4 2 2 3 4 4 3 6 7 11 10 8 8 9 10 10 10 10 9
6 5 5 4 4 4 4 4 3 5 5 4 2 4 3 2 3 1 2 4 5 7 7 7 4 4 2 1 2 5 5 7 6 7 7 9 10 9 9 9 9 9 8
7 5 3 3 5 5 4 4 4 4 5 4 2 5 7 6 8 8 2 4 7 6 6 8 5 3 4 4 7 7 7 7 8 8 7 7 7 7 7 9 9 10 9
4 4 6 5 5 7 8 6 3 6 4 4 4 3 5 5 6 6 6 11 2 8 8 6 6 8 9 8 8 5 5 7 7 7 7 7 9 8 8 8 13 13 10
5 4 4 5 6 4 3 1 2 6 5 4 3 3 6 7 4 6 4 4 6 7 2 7 8 9 8 10 10 9 9 10 4 3 4 7 9 7 9 8 19 15 12
2 3 5 4 5 2 3 3 5 4 7 4 4 4 5 3 4 4 6 5 4 5 6 6 7 8 9 11 9 9 4 2 5 3 10 7 7 6 8 10 17 16 14
3 3 2 2 5 5 6 6 3 5 7 5 3 3 4 3 6 5 6 5 5 4 7 7 5 5 6 12 8 7 5 7 4 4 9 8 5 4 5 8 11 19 16
4 4 1 4 1 5 9 7 5 5 7 5 4 4 2 3 6 2 4 1 4 5 6 6 5 4 6 8 11 11 10 10 10 7 7 10 8 7 5 8 9 9 10
Wind_Direction
211 226 181 179 229 213 170 206 143 246 279 220 260 282 249 266 262 230 157 159 167 183 211 223 222 221 220 221 226 227 235 237 231 234 237 250 253 236 238 247 259 257 265
181 208 215 207 191 181 184 255 180 183 215 246 199 196 249 274 231 258 267 178 175 180 196 217 222 221 222 223 224 230 233 243 234 230 235 235 245 242 245 252 255 267 267
178 232 210 207 245 165 248 238 203 166 236 249 249 215 251 241 270 237 243 281 182 190 197 199 211 218 220 223 223 229 233 232 236 234 231 232 234 239 238 249 259 286 316
235 213 254 220 210 188 212 243 230 228 247 204 223 231 216 237 224 244 241 240 284 189 211 203 208 214 215 220 223 226 228 226 228 230 230 230 226 226 242 237 242 269 300
239 241 234 240 291 256 197 207 211 231 222 257 219 255 248 238 252 245 241 239 206 220 184 230 215 206 218 221 223 224 222 221 224 226 230 232 226 216 220 238 247 222 252
208 205 219 214 235 263 254 189 220 233 279 213 222 247 200 276 291 321 276 263 45 240 227 222 249 227 210 222 226 226 223 215 219 222 226 232 227 215 209 219 240 226 229
204 207 230 205 202 230 270 263 237 256 278 280 337 274 280 288 267 265 239 243 289 258 268 263 259 271 248 213 215 228 232 232 222 223 226 236 235 221 216 219 229 235 230
220 209 208 214 213 225 226 227 246 252 235 270 236 283 270 284 275 250 251 256 293 269 254 261 302 271 271 316 144 213 241 238 228 222 224 235 238 229 230 234 244 227 240
199 199 194 222 200 197 232 251 244 240 248 240 226 232 225 251 247 273 227 214 317 298 286 278 304 279 280 289 239 196 177 283 227 222 227 209 193 209 205 158 148 208 280
201 188 191 194 209 224 240 236 241 238 238 240 211 216 232 244 332 327 235 157 107 5 2 337 314 309 292 308 56 55 108 174 125 133 140 142 141 135 142 138 155 148 190
202 193 197 238 253 256 254 249 249 237 228 234 218 163 212 244 231 225 278 217 152 39 5 340 341 340 356 38 89 68 70 80 100 105 111 118 117 121 129 138 141 151 151
174 185 195 201 200 258 264 283 258 250 235 227 186 180 206 235 223 219 242 228 150 61 27 3 356 10 48 85 82 83 81 80 84 96 106 113 116 118 117 132 154 158 150
172 180 193 196 198 221 237 226 236 226 231 227 228 226 220 234 273 258 247 216 142 129 87 18 2 28 51 61 87 91 84 84 81 84 87 85 84 87 85 110 130 119 127
112 160 198 197 198 197 215 278 257 253 247 240 244 254 275 282 232 228 228 201 121 132 90 123 360 45 58 65 103 100 89 87 86 85 89 93 93 91 85 77 78 83 92
126 186 226 241 187 192 193 175 190 228 251 231 221 226 232 251 232 211 213 204 181 160 143 172 120 67 108 114 125 122 105 97 96 90 86 89 95 95 94 94 91 89 87
307 328 260 263 169 198 194 208 210 192 245 256 244 209 239 263 289 281 243 215 210 229 148 134 135 156 101 82 114 106 110 111 102 104 93 87 101 102 103 100 96 95 94
227 233 212 288 327 23 283 243 257 231 219 259 273 268 262 239 259 227 235 209 209 202 131 101 113 123 123 142 149 138 164 132 110 104 96 93 95 102 102 101 100 103 105
199 215 217 204 257 228 280 279 262 303 265 263 295 264 285 301 298 265 243 199 194 183 138 137 120 129 108 163 143 161 188 142 116 120 123 93 91 97 103 104 105 105 102
211 216 208 202 226 256 267 254 303 283 261 247 257 293 292 282 282 340 274 198 174 143 138 145 124 106 76 178 181 169 61 113 103 132 132 121 117 118 117 113 108 105 107
226 232 233 242 256 259 274 246 265 268 269 232 267 268 275 1 315 30 343 158 148 130 132 135 114 123 121 139 181 165 168 152 152 168 156 133 150 132 128 128 130 131 125
229 242 237 247 264 240 261 197 241 253 248 246 195 258 63 52 47 44 0 157 147 150 153 153 148 130 148 172 190 187 183 179 176 174 162 172 165 170 164 177 150 150 144
236 239 254 247 255 280 46 53 350 299 259 266 234 228 136 132 94 64 57 58 109 164 164 170 172 178 183 185 192 187 170 177 179 206 191 190 181 185 163 192 159 152 158
237 219 263 265 277 270 126 119 322 301 284 249 264 241 262 99 198 137 105 109 85 59 143 178 188 188 179 191 184 183 204 211 193 185 184 221 194 196 181 139 144 156 167
256 238 246 263 256 165 169 249 281 291 291 255 272 274 286 139 44 341 174 148 157 175 166 187 199 197 204 187 193 195 194 180 213 221 199 225 202 224 157 149 155 161 173
221 259 280 278 242 210 175 226 250 278 279 257 235 263 310 269 97 11 294 154 155 158 119 89 75 60 168 168 176 169 189 196 214 222 215 211 192 230 180 145 170 170 177
198 243 239 265 232 259 154 204 218 252 277 248 213 185 194 64 153 166 275 179 226 187 182 169 170 145 160 178 185 205 197 200 215 208 205 221 192 198 187 198 173 169 187